NOAA 16 DEB

Satellite information

Favourite Embed

Satellite Type and Status

DEBRISIN ORBIT

Key statistics

Satellite NOAA 16 DEB at a glance.

Uptime

9158

Days in orbit

Revolutions

≈ 14.2

Per day

Orbit

SSO

Sun Synchronous Orbit

Inclination

98.8

Latest

Satellite identification and parameters

Extended collection of information and parameters for NOAA 16 DEB.

Object identification

Identified? True

Debris? True

Object name: NOAA 16 DEB

International designator: 2000-055FL

Object number (NORAD): 41260

Object ID (CCSDS): 41260

Country: UNITED STATES OF AMERICA (US)

Current information (Y/N): Y

RCS size: SMALL

Orbital parameters

Period: 101.285 minutes

Inclination: 98.7794 deg

SMA: 7197.663 km

Apoapsis: 837.095 km

Periapsis: 801.961 km

RAAN: 8.7761 deg

Eccentricy: 0.00244065

Argument of periapsis: 121.9032 deg

Mean anomaly: 238.4524 deg

Mean motion: 14.217246 rev/day

Mean motion (dot): 0.00004862 rev/day2

B* drag term: 0.0022242059 1/REarth

Two-line elements (TLE)

Creation date: Oct. 18, 2025, 2:17 a.m.

Reference frame: TEME

Reference center: EARTH

Epoch: Oct. 17, 2025, 4:32 p.m. UTC

TLE line 0: 0 NOAA 16 DEB

TLE line 1: 1 41260U 00055FL 25290.68932722 .00004862 00000-0 22242-2 0 9994

TLE line 2: 2 41260 98.7794 8.7761 0024407 121.9032 238.4524 14.21724600507853

Live tracking on map

Real-time ground track for satellite NOAA 16 DEB.

In-orbit conjunctions

A list of the most updated potential collisions computed for object NOAA 16 DEB.

Target Orbit TCA Probability of collision Miss distance Type
NOAA 12 SSO 2025-09-06 03:28:22 0.0001037411 488.0 (m) PAYLOAD
METEOR 1-17 DEB LEO 2025-03-28 11:46:50 0.0001987095 48.0 (m) DEBRIS
CZ-6A DEB LEO 2025-03-13 05:24:55 0.0001983806 82.0 (m) DEBRIS
NOAA 11 SSO 2025-01-05 12:29:45 0.0001002374 425.0 (m) PAYLOAD

Associated space launch

The NOAA K, L and M POES satellites begin the fifth generation of improved environmental monitoring in support of NOAA missions. The instrument payload has significant improvements and additions/deletions. The instrument changes have effected the spacecraft subsystems and data formats.

NOAA 16 DEB was lifted into orbit during the mission ‘Titan II SLV | NOAA 16’, on board a Titan II SLV space rocket.

The launch took place on Sept. 21, 2000, 10:22 a.m. from Space Launch Complex 4W.

For more information about the launch, click the button.

Launch to space Titan II SLV | NOAA 16
Titan II SLV | NOAA 16

Agency: N/A

Status: Launch Successful

Launch date: Sept. 21, 2000, 10:22 a.m. UTC

Rocket: Titan II SLV

Launch pad: Space Launch Complex 4W

Location: Vandenberg SFB, CA, USA

...

Latest news about this satellite

There are no fresh news available about this satellite. Check back as we update our databases every day.


Newsletter sign-up

Weekly statistics, charts and insights to help you stay on top of the space industry.